Location: Auttagershofen
(48.1940°N, 10.0237°E)
Time: 07:55:50
(UTC+00:00)

ACS3 Solar Sail - Visible Passes

Search period start: 12 March 2026 00:00
Search period end: 22 March 2026 00:00
Orbit: 885 x 974 km, 97.2° (Epoch: 11 March)

Date Brightness Start Highest point End Pass type
(mag) Time Alt. Az. Time Alt. Az. Time Alt. Az.
12 Mar 3.6 00:57:47 10° NNE 01:00:01 24° NNE 01:00:01 24° NNE visible
12 Mar 3.4 02:41:13 10° N 02:43:42 19° NW 02:43:42 19° NW visible
13 Mar 3.4 01:09:03 10° NNE 01:11:33 27° NNE 01:11:33 27° NNE visible
13 Mar 3.4 02:52:49 10° NNW 02:55:13 17° NW 02:55:13 17° NW visible
13 Mar 4.3 23:39:04 10° NE 23:39:20 11° NE 23:39:20 11° NE visible
14 Mar 3.2 01:20:17 10° N 01:23:01 30° N 01:23:01 30° N visible
14 Mar 3.5 03:04:26 10° NNW 03:06:41 15° NW 03:06:41 15° NW visible
14 Mar 4.2 23:49:48 10° NE 23:50:45 14° NE 23:50:45 14° NE visible
15 Mar 3.1 01:31:29 10° N 01:34:25 31° N 01:34:25 31° N visible
15 Mar 3.6 03:16:11 10° NNW 03:18:05 13° NW 03:18:05 13° NW visible
16 Mar 4.0 00:00:35 10° NNE 00:02:06 17° NE 00:02:06 17° NE visible
16 Mar 3.0 01:42:38 10° N 01:45:46 32° N 01:45:46 32° N visible
16 Mar 3.7 03:28:21 10° NW 03:29:25 11° NW 03:29:25 11° NW visible
17 Mar 3.8 00:11:24 10° NNE 00:13:23 20° NE 00:13:23 20° NE visible
17 Mar 2.9 01:53:47 10° N 01:57:03 31° NNW 01:57:03 31° NNW visible
18 Mar 3.6 00:22:13 10° NNE 00:24:36 23° NE 00:24:36 23° NE visible
18 Mar 3.0 02:04:53 10° N 02:08:16 29° NNW 02:08:16 29° NNW visible
19 Mar 3.4 00:33:01 10° NNE 00:35:46 28° NE 00:35:46 28° NE visible
19 Mar 3.0 02:15:57 10° N 02:19:25 27° NW 02:19:25 27° NW visible
20 Mar 3.2 00:43:47 10° NNE 00:46:52 32° NNE 00:46:52 32° NNE visible
20 Mar 3.1 02:26:59 10° N 02:30:31 24° NW 02:30:31 24° NW visible
21 Mar 3.0 00:54:32 10° NNE 00:57:54 36° NNE 00:57:54 36° NNE visible
21 Mar 3.2 02:38:02 10° NNW 02:41:32 21° NW 02:41:32 21° NW visible
21 Mar 4.2 23:24:27 10° NE 23:25:14 12° NE 23:25:14 12° NE visible
